Silver Bay, MN

7:54 PM CDT on March 28, 2017 (GMT -0500)
Silver Bay Municipal

Weather History for KBFW - November, 2012

Change the Weather History Date:

Wednesday, November 28, 2012

  Actual Average Record
Temperature  
Mean Temperature 14 °F -  
Max Temperature 24 °F 29 °F 44 °F (2005)
Min Temperature 3 °F 15 °F 1 °F (2010)
Degree Days  
Heating Degree Days 52    
Moisture  
Dew Point 8 °F    
Average Humidity 69    
Maximum Humidity 86    
Minimum Humidity 54    
Precipitation  
Precipitation 0.00 in - - ()
Sea Level Pressure  
Sea Level Pressure 30.13 in    
Wind  
Wind Speed 5 mph (West)    
Max Wind Speed 10 mph    
Max Gust Speed -    
Visibility 10 miles    
Events Snow    
Averages and records for this station are not official NWS values.
T = Trace of Precipitation, MM = Missing Value Source: NWS Daily Summary

Daily Weather History Graph

Daily Weather History Graph

Search for Another Location

Airport or City:

Trip Planner

Search our weather history database for the weather conditions in past years. The results will help you decide how hot, cold, wet, or windy it might be!

Date:

Astronomy

Nov. 28, 2012 Rise Set
Actual Time 7:28 AM CST 4:18 PM CST
Civil Twilight 6:53 AM CST 4:53 PM CST
Nautical Twilight 6:15 AM CST 5:31 PM CST
Astronomical Twilight 5:38 AM CST 6:08 PM CST
Moon 4:33 PM CST (11/28) 7:26 AM CST (11/28)
Length of Visible Light 9h 59m
Length of Day
8h 50m
Full, 100% of the Moon is Illuminated
Nov 28
Full
Dec 6
Last Quarter
Dec 13
New
Dec 19
First Quarter
Dec 28
Full

Hourly Weather History & Observations

Time (CST) Temp. Windchill Dew Point Humidity Pressure Visibility Wind Dir Wind Speed Gust Speed Precip Events Conditions
12:13 AM 12.2 °F 2.9 °F 3.2 °F 67% 30.14 in 10.0 mi NW 5.8 mph - N/A   Clear
12:33 AM 10.4 °F 0.8 °F 3.2 °F 73% 30.14 in 10.0 mi WNW 5.8 mph - N/A   Clear
12:53 AM 10.4 °F 2.2 °F 1.4 °F 67% 30.15 in 10.0 mi NW 4.6 mph - N/A   Clear
1:13 AM 8.6 °F -1.3 °F 1.4 °F 73% 30.15 in 10.0 mi NW 5.8 mph - N/A   Clear
1:33 AM 8.6 °F 2.0 °F 1.4 °F 73% 30.16 in 10.0 mi WNW 3.5 mph - N/A   Clear
1:53 AM 6.8 °F - 1.4 °F 79% 30.17 in 10.0 mi Calm Calm - N/A   Clear
2:13 AM 6.8 °F - -0.4 °F 72% 30.18 in 10.0 mi Calm Calm - N/A   Clear
2:53 AM 3.2 °F - -2.2 °F 78% 30.19 in 10.0 mi Calm Calm - N/A Snow Light Snow
3:13 AM 3.2 °F - -0.4 °F 85% 30.19 in 10.0 mi Calm Calm - N/A   Scattered Clouds
3:33 AM 6.8 °F -4.8 °F 1.4 °F 79% 30.19 in 10.0 mi WNW 6.9 mph - N/A Snow Light Snow
3:53 AM 8.6 °F -4.7 °F 1.4 °F 73% 30.20 in 10.0 mi WNW 9.2 mph - N/A   Scattered Clouds
4:13 AM 10.4 °F -1.5 °F 1.4 °F 67% 30.19 in 10.0 mi WNW 8.1 mph - N/A Snow Light Snow
4:33 AM 10.4 °F 0.8 °F 1.4 °F 67% 30.20 in 10.0 mi NW 5.8 mph - N/A Snow Light Snow
4:53 AM 10.4 °F -0.4 °F 1.4 °F 67% 30.21 in 10.0 mi WNW 6.9 mph - N/A   Scattered Clouds
5:13 AM 10.4 °F -0.4 °F 1.4 °F 67% 30.21 in 10.0 mi West 6.9 mph - N/A   Scattered Clouds
5:33 AM 10.4 °F - 1.4 °F 67% 30.22 in 10.0 mi Calm Calm - N/A   Scattered Clouds
5:53 AM 10.4 °F 0.8 °F 1.4 °F 67% 30.22 in 10.0 mi West 5.8 mph - N/A   Scattered Clouds
6:13 AM 10.4 °F 2.2 °F 1.4 °F 67% 30.22 in 10.0 mi WNW 4.6 mph - N/A   Scattered Clouds
6:33 AM 8.6 °F -1.3 °F 1.4 °F 73% 30.23 in 10.0 mi West 5.8 mph - N/A   Scattered Clouds
6:53 AM 8.6 °F 2.0 °F 1.4 °F 73% 30.23 in 10.0 mi West 3.5 mph - N/A   Mostly Cloudy
7:13 AM 8.6 °F 0.1 °F 1.4 °F 73% 30.23 in 10.0 mi West 4.6 mph - N/A   Mostly Cloudy
7:34 AM 8.6 °F 0.1 °F 1.4 °F 73% 30.22 in 10.0 mi West 4.6 mph - N/A   Scattered Clouds
7:53 AM 8.6 °F - 1.4 °F 73% 30.22 in 10.0 mi Calm Calm - N/A Snow Light Snow
8:13 AM 10.4 °F 4.0 °F 3.2 °F 73% 30.22 in 10.0 mi West 3.5 mph - N/A Snow Light Snow
8:33 AM 12.2 °F - 3.2 °F 67% 30.23 in 7.0 mi Calm Calm - N/A Snow Light Snow
8:53 AM 12.2 °F 1.7 °F 3.2 °F 67% 30.22 in 10.0 mi West 6.9 mph - N/A Snow Light Snow
9:13 AM 15.8 °F 10.2 °F 3.2 °F 58% 30.22 in 7.0 mi West 3.5 mph - N/A Snow Light Snow
9:33 AM 15.8 °F 6.1 °F 3.2 °F 58% 30.22 in 7.0 mi West 6.9 mph - N/A Snow Light Snow
9:53 AM 17.6 °F 8.2 °F 5.0 °F 58% 30.22 in 10.0 mi West 6.9 mph - N/A Snow Light Snow
10:13 AM 17.6 °F 8.2 °F 6.8 °F 63% 30.21 in 10.0 mi WSW 6.9 mph - N/A   Clear
10:33 AM 19.4 °F 11.5 °F 6.8 °F 58% 30.21 in 10.0 mi West 5.8 mph - N/A   Clear
10:53 AM 19.4 °F 9.5 °F 5.0 °F 54% 30.20 in 10.0 mi West 8.1 mph - N/A   Clear
11:13 AM 21.2 °F 14.9 °F 6.8 °F 54% 30.19 in 10.0 mi West 4.6 mph - N/A   Clear
11:33 AM 19.4 °F 10.4 °F 6.8 °F 58% 30.17 in 10.0 mi WSW 6.9 mph - N/A   Clear
11:53 AM 21.2 °F 11.7 °F 6.8 °F 54% 30.16 in 10.0 mi WSW 8.1 mph - N/A   Clear
12:13 PM 21.2 °F 12.6 °F 8.6 °F 58% 30.16 in 10.0 mi WSW 6.9 mph - N/A   Clear
12:33 PM 24.8 °F 16.9 °F 10.4 °F 54% 30.15 in 10.0 mi WSW 6.9 mph - N/A   Clear
12:53 PM 23.0 °F 12.4 °F 10.4 °F 59% 30.14 in 10.0 mi WSW 10.4 mph - N/A   Clear
1:13 PM 21.2 °F 11.7 °F 10.4 °F 63% 30.13 in 10.0 mi West 8.1 mph - N/A   Clear
1:33 PM 23.0 °F 14.7 °F 10.4 °F 59% 30.13 in 10.0 mi WSW 6.9 mph - N/A   Clear
1:53 PM 23.0 °F 15.8 °F 10.4 °F 59% 30.12 in 10.0 mi WSW 5.8 mph - N/A   Clear
2:13 PM 24.8 °F 19.1 °F 12.2 °F 59% 30.10 in 10.0 mi WSW 4.6 mph - N/A   Clear
2:33 PM 24.8 °F 17.9 °F 12.2 °F 59% 30.10 in 10.0 mi WSW 5.8 mph - N/A   Clear
2:53 PM 24.8 °F 16.9 °F 12.2 °F 59% 30.09 in 10.0 mi WSW 6.9 mph - N/A   Clear
3:13 PM 24.8 °F 16.1 °F 12.2 °F 59% 30.08 in 10.0 mi SW 8.1 mph - N/A   Clear
3:33 PM 24.8 °F 15.3 °F 12.2 °F 59% 30.07 in 10.0 mi SW 9.2 mph - N/A   Clear
3:53 PM 23.0 °F 12.4 °F 12.2 °F 63% 30.06 in 10.0 mi SSW 10.4 mph - N/A   Clear
4:13 PM 23.0 °F - 12.2 °F 63% 30.06 in 10.0 mi North - - N/A   Clear
4:33 PM 21.2 °F 14.9 °F 12.2 °F 68% 30.06 in 10.0 mi WSW 4.6 mph - N/A   Clear
4:53 PM 21.2 °F 13.6 °F 12.2 °F 68% 30.05 in 10.0 mi WSW 5.8 mph - N/A   Clear
5:13 PM 21.2 °F 12.6 °F 12.2 °F 68% 30.05 in 10.0 mi WSW 6.9 mph - N/A   Clear
5:33 PM 21.2 °F 11.7 °F 14.0 °F 74% 30.05 in 10.0 mi SW 8.1 mph - N/A   Clear
5:53 PM 21.2 °F 14.9 °F 14.0 °F 74% 30.04 in 10.0 mi WSW 4.6 mph - N/A   Clear
6:13 PM 21.2 °F 16.4 °F 14.0 °F 74% 30.04 in 10.0 mi West 3.5 mph - N/A   Clear
6:33 PM 21.2 °F 13.6 °F 14.0 °F 74% 30.03 in 10.0 mi SW 5.8 mph - N/A   Clear
6:53 PM 21.2 °F 14.9 °F 14.0 °F 74% 30.03 in 10.0 mi West 4.6 mph - N/A   Clear
7:13 PM 19.4 °F - 14.0 °F 80% 30.03 in 10.0 mi Calm Calm - N/A   Clear
7:53 PM 19.4 °F 14.3 °F 14.0 °F 80% 30.05 in 10.0 mi West 3.5 mph - N/A   Clear
8:13 PM 19.4 °F - 14.0 °F 80% 30.05 in 10.0 mi Calm Calm - N/A   Clear
8:33 PM 17.6 °F - 12.2 °F 79% 30.05 in 10.0 mi Calm Calm - N/A   Clear
8:53 PM 17.6 °F - 12.2 °F 79% 30.05 in 10.0 mi Calm Calm - N/A   Clear
9:13 PM 19.4 °F - 15.8 °F 86% 30.05 in 10.0 mi Calm Calm - N/A   Clear
9:33 PM 21.2 °F 16.4 °F 17.6 °F 86% 30.04 in 10.0 mi WSW 3.5 mph - N/A   Scattered Clouds
9:53 PM 23.0 °F 15.8 °F 17.6 °F 80% 30.04 in 10.0 mi West 5.8 mph - N/A   Scattered Clouds
10:13 PM 24.8 °F 20.5 °F 17.6 °F 74% 30.04 in 10.0 mi West 3.5 mph - N/A   Scattered Clouds
10:33 PM 24.8 °F 20.5 °F 19.4 °F 80% 30.04 in 10.0 mi West 3.5 mph - N/A   Scattered Clouds
10:53 PM 24.8 °F 20.5 °F 17.6 °F 74% 30.04 in 10.0 mi West 3.5 mph - N/A   Scattered Clouds
11:13 PM 24.8 °F 20.5 °F 17.6 °F 74% 30.05 in 10.0 mi West 3.5 mph - N/A   Scattered Clouds
11:33 PM 24.8 °F - 17.6 °F 74% 30.05 in 10.0 mi Calm Calm - N/A   Scattered Clouds
11:53 PM 24.8 °F - 17.6 °F 74% 30.06 in 10.0 mi Calm Calm - N/A   Scattered Clouds